{"data":{"norad_id":58441,"intl_designator":"2023-183E","name":"STARLINK-30942","alt_names":[],"object_type":"PAYLOAD","status":"ACTIVE","operator":null,"country":"US","launch_date":"2023-11-28","launch_site_code":"AFETR","launch_vehicle":null,"mission":null,"orbit_class":"UNKNOWN","rcs_meters":null,"size_class":null,"mass_kg":null,"dimensions":null,"purposes":["comms"],"wikipedia_slug":null,"has_3d_model":false,"image_url":null,"decayed_at":null,"tle_current":{"epoch":"2026-05-24T21:26:50.655840Z","epoch_age_seconds":87414,"freshness":"FRESH","line1":"1 58441U 23183E   26144.89364185  .00000151  00000+0  15018-4 0  9995","line2":"2 58441  43.0032 330.8422 0000960 264.0188  96.0554 15.27576738138396","mean_motion":15.27576738,"eccentricity":9.6e-5,"inclination_deg":43.0032,"raan_deg":330.8422,"arg_perigee_deg":264.0188,"mean_anomaly_deg":96.0554,"bstar":1.5018e-5,"rev_number":13839,"period_min":94.266950011646,"perigee_km":482.40018885562,"apogee_km":483.71753846145,"semimajor_km":6861.1958636585,"source":"CELESTRAK","updated_at":"2026-05-25T13:38:18.622528Z"}}}